Auburn, AL

12:59 PM CDT on June 26, 2017 (GMT -0500)
Auburn-opelika-pitts

Weather History for KAUO - February, 2012

Change the Weather History Date:

Friday, February 17, 2012

  Actual Average Record
Temperature  
Mean Temperature 57 °F -  
Max Temperature 68 °F - 80 °F (1961)
Min Temperature 46 °F - 8 °F (1958)
Degree Days  
Heating Degree Days 8    
Month to date heating degree days 208  
Since 1 July heating degree days 1315  
Growing Degree Days 7 (Base 50)    
Moisture  
Dew Point 44 °F    
Average Humidity 65    
Maximum Humidity 88    
Minimum Humidity 34    
Precipitation  
Precipitation 0.00 in - 2.50 in (1975)
Month to date precipitation 0.65  
Year to date precipitation 4.02  
Sea Level Pressure  
Sea Level Pressure 30.09 in    
Wind  
Wind Speed 6 mph (NNE)    
Max Wind Speed 12 mph    
Max Gust Speed -    
Visibility 10 miles    
Events      
T = Trace of Precipitation, MM = Missing Value Source: NWS Daily Summary

Daily Weather History Graph

Daily Weather History Graph

Search for Another Location

Airport or City:

Trip Planner

Search our weather history database for the weather conditions in past years. The results will help you decide how hot, cold, wet, or windy it might be!

Date:

Astronomy

Feb. 17, 2012 Rise Set
Actual Time 6:23 AM CST 5:28 PM CST
Civil Twilight 5:58 AM CST 5:53 PM CST
Nautical Twilight 5:29 AM CST 6:22 PM CST
Astronomical Twilight 5:00 AM CST 6:51 PM CST
Moon 3:03 AM CST (2/17) 1:30 PM CST (2/17)
Length of Visible Light 11h 55m
Length of Day
11h 05m
Waning Crescent, 19% of the Moon is Illuminated
Feb 17
Waning Crescent
Feb 21
New
Feb 29
First Quarter
Mar 8
Full
Mar 14
Last Quarter

Hourly Weather History & Observations

Time (CST) Temp. Windchill Dew Point Humidity Pressure Visibility Wind Dir Wind Speed Gust Speed Precip Events Conditions
12:15 AM 53.6 °F - 50.0 °F 88% 30.09 in 10.0 mi North 4.6 mph - N/A   Clear
12:35 AM 53.6 °F - 48.2 °F 82% 30.09 in 10.0 mi North 6.9 mph - N/A   Clear
12:55 AM 55.4 °F - 48.2 °F 77% 30.09 in 10.0 mi North 8.1 mph - N/A   Clear
1:15 AM 53.6 °F - 48.2 °F 82% 30.09 in 10.0 mi North 6.9 mph - N/A   Clear
1:35 AM 53.6 °F - 48.2 °F 82% 30.09 in 10.0 mi NNE 9.2 mph - N/A   Clear
1:55 AM 53.6 °F - 46.4 °F 77% 30.08 in 10.0 mi NNE 8.1 mph - N/A   Clear
2:15 AM 53.6 °F - 46.4 °F 77% 30.07 in 10.0 mi NNE 10.4 mph - N/A   Clear
2:35 AM 51.8 °F - 46.4 °F 82% 30.07 in 10.0 mi NNE 11.5 mph - N/A   Clear
2:55 AM 51.8 °F - 46.4 °F 82% 30.06 in 10.0 mi NNE 11.5 mph - N/A   Clear
3:15 AM 51.8 °F - 46.4 °F 82% 30.07 in 10.0 mi NNE 10.4 mph - N/A   Clear
3:35 AM 50.0 °F - 46.4 °F 87% 30.07 in 10.0 mi NNE 10.4 mph - N/A   Clear
3:55 AM 50.0 °F - 44.6 °F 82% 30.08 in 10.0 mi NNE 11.5 mph - N/A   Clear
4:15 AM 48.2 °F - 44.6 °F 87% 30.08 in 10.0 mi NNE 11.5 mph - N/A   Clear
4:35 AM 48.2 °F - 44.6 °F 87% 30.09 in 10.0 mi NNE 12.7 mph - N/A   Clear
4:55 AM 48.2 °F - 44.6 °F 87% 30.09 in 10.0 mi NNE 10.4 mph - N/A   Clear
5:15 AM 48.2 °F - 42.8 °F 82% 30.10 in 10.0 mi NNE 10.4 mph - N/A   Clear
5:35 AM 48.2 °F - 42.8 °F 82% 30.12 in 10.0 mi NNE 8.1 mph - N/A   Clear
5:55 AM 48.2 °F - 42.8 °F 82% 30.12 in 10.0 mi North 9.2 mph - N/A   Clear
6:15 AM 46.4 °F 41.9 °F 42.8 °F 87% 30.13 in 10.0 mi North 9.2 mph - N/A   Clear
6:35 AM 46.4 °F 41.5 °F 42.8 °F 87% 30.13 in 10.0 mi NNE 10.4 mph - N/A   Clear
6:55 AM 46.4 °F 41.5 °F 42.8 °F 87% 30.12 in 10.0 mi NNE 10.4 mph - N/A   Clear
7:15 AM 48.2 °F - 42.8 °F 82% 30.13 in 10.0 mi NE 10.4 mph - N/A   Clear
7:35 AM 48.2 °F - 42.8 °F 82% 30.14 in 10.0 mi NNE 10.4 mph - N/A   Clear
7:55 AM 48.2 °F - 42.8 °F 82% 30.14 in 10.0 mi North 8.1 mph - N/A   Clear
8:35 AM 48.2 °F - 42.8 °F 82% 30.14 in 10.0 mi NNE 5.8 mph - N/A   Clear
8:55 AM 51.8 °F - 44.6 °F 76% 30.14 in 10.0 mi North 6.9 mph - N/A   Clear
9:15 AM 53.6 °F - 44.6 °F 72% 30.15 in 10.0 mi North 6.9 mph - N/A   Clear
9:35 AM 55.4 °F - 44.6 °F 67% 30.13 in 10.0 mi ENE 5.8 mph - N/A   Clear
9:55 AM 57.2 °F - 46.4 °F 67% 30.15 in 10.0 mi NE 5.8 mph - N/A   Clear
10:15 AM 57.2 °F - 46.4 °F 67% 30.14 in 10.0 mi NNE 8.1 mph - N/A   Clear
10:35 AM 59.0 °F - 46.4 °F 63% 30.14 in 10.0 mi East 5.8 mph - N/A   Clear
10:55 AM 59.0 °F - 44.6 °F 59% 30.14 in 10.0 mi East 4.6 mph - N/A   Clear
11:15 AM 62.6 °F - 46.4 °F 55% 30.12 in 10.0 mi Calm Calm - N/A   Clear
11:35 AM 62.6 °F - 46.4 °F 55% 30.12 in 10.0 mi North 3.5 mph - N/A   Clear
11:55 AM 62.6 °F - 44.6 °F 52% 30.11 in 10.0 mi NNE 3.5 mph - N/A   Clear
12:15 PM 62.6 °F - 44.6 °F 52% 30.11 in 10.0 mi East 3.5 mph - N/A   Clear
12:35 PM 62.6 °F - 44.6 °F 52% 30.10 in 10.0 mi Calm Calm - N/A   Clear
12:55 PM 62.6 °F - 44.6 °F 52% 30.10 in 10.0 mi SSW 4.6 mph - N/A   Clear
1:15 PM 64.4 °F - 42.8 °F 45% 30.08 in 10.0 mi SSW 3.5 mph - N/A   Clear
1:35 PM 64.4 °F - 35.6 °F 34% 30.07 in 10.0 mi SSW 3.5 mph - N/A   Clear
1:55 PM 66.2 °F - 39.2 °F 37% 30.06 in 10.0 mi South 4.6 mph - N/A   Clear
2:15 PM 66.2 °F - 39.2 °F 37% 30.07 in 10.0 mi SSE 3.5 mph - N/A   Clear
2:35 PM 66.2 °F - 39.2 °F 37% 30.06 in 10.0 mi SSW 3.5 mph - N/A   Clear
2:55 PM 66.2 °F - 41.0 °F 40% 30.05 in 10.0 mi Calm Calm - N/A   Clear
3:35 PM 68.0 °F - 42.8 °F 40% 30.06 in 10.0 mi NW 5.8 mph - N/A   Clear
3:55 PM 66.2 °F - 42.8 °F 43% 30.05 in 10.0 mi West 4.6 mph - N/A   Clear
4:15 PM 68.0 °F - 41.0 °F 37% 30.05 in 10.0 mi NW 4.6 mph - N/A   Clear
4:35 PM 66.2 °F - 39.2 °F 37% 30.05 in 10.0 mi NW 4.6 mph - N/A   Clear
4:55 PM 66.2 °F - 41.0 °F 40% 30.05 in 10.0 mi NNE 3.5 mph - N/A   Clear
5:15 PM 64.4 °F - 42.8 °F 45% 30.05 in 10.0 mi NNE 3.5 mph - N/A   Clear
5:35 PM 62.6 °F - 42.8 °F 48% 30.06 in 10.0 mi NE 3.5 mph - N/A   Clear
5:55 PM 60.8 °F - 42.8 °F 52% 30.06 in 10.0 mi NNE 4.6 mph - N/A   Clear
6:15 PM 57.2 °F - 42.8 °F 59% 30.07 in 10.0 mi NE 5.8 mph - N/A   Clear
6:35 PM 57.2 °F - 42.8 °F 59% 30.07 in 10.0 mi NE 5.8 mph - N/A   Clear
6:55 PM 57.2 °F - 42.8 °F 59% 30.07 in 10.0 mi NE 5.8 mph - N/A   Clear
7:15 PM 57.2 °F - 41.0 °F 55% 30.07 in 10.0 mi ENE 4.6 mph - N/A   Clear
7:35 PM 55.4 °F - 42.8 °F 63% 30.07 in 10.0 mi South 3.5 mph - N/A   Clear
7:55 PM 55.4 °F - 42.8 °F 63% 30.07 in 10.0 mi Calm Calm - N/A   Clear
8:15 PM 53.6 °F - 42.8 °F 67% 30.07 in 10.0 mi Calm Calm - N/A   Clear
8:35 PM 53.6 °F - 42.8 °F 67% 30.07 in 10.0 mi ESE 3.5 mph - N/A   Clear
8:55 PM 53.6 °F - 39.2 °F 58% 30.07 in 10.0 mi East 4.6 mph - N/A   Clear
9:15 PM 53.6 °F - 39.2 °F 58% 30.07 in 10.0 mi ESE 4.6 mph - N/A   Clear
9:35 PM 53.6 °F - 39.2 °F 58% 30.07 in 10.0 mi ESE 4.6 mph - N/A   Clear
9:55 PM 51.8 °F - 39.2 °F 62% 30.07 in 10.0 mi Calm Calm - N/A   Clear
10:15 PM 50.0 °F - 41.0 °F 71% 30.08 in 10.0 mi Calm Calm - N/A   Clear
10:35 PM 51.8 °F - 42.8 °F 71% 30.08 in 10.0 mi Calm Calm - N/A   Mostly Cloudy
10:55 PM 48.2 °F - 42.8 °F 82% 30.07 in 10.0 mi Calm Calm - N/A   Scattered Clouds
11:15 PM 48.2 °F - 42.8 °F 82% 30.08 in 10.0 mi North 3.5 mph - N/A   Partly Cloudy
11:35 PM 48.2 °F - 42.8 °F 82% 30.09 in 10.0 mi NNE 3.5 mph - N/A   Mostly Cloudy
11:55 PM 48.2 °F - 42.8 °F 82% 30.08 in 10.0 mi NE 4.6 mph - N/A   Overcast